JQ1YUX-13 Tokyo Ota-ku JP current weather conditions

sailwx.info

Wind from 223

Air temperature 21.7° C
Dewpoint 19.8° C

Last reported at 2016-May-29 10:46 UTC.
Time now 2016-May-29 11:39 UTC

Location: N 35°35' E 139°40'.
View on Google Maps.

See reports from other nearby stations

  
Tides and Currents Weather Stations Pressure Air Temp Water Temp Dewpoint Dewpoint Depression Visibility Wind Speed Wind Dir Waves Ship Positions
date/time (UTC)wind fromknots sea level pressurealtimeterstation pressurevisibilityair tempwater tempwave heightnotes
2016-May-29 10:46 223 21.7
2016-May-29 10:28 217 3 gusting 6 22.2
2016-May-29 10:16 220 1 gusting 4 22.2
2016-May-29 09:58 227 22.8
2016-May-29 09:46 203 1 gusting 6 22.8
2016-May-29 09:28 202 23.3
2016-May-29 09:16 211 23.3
2016-May-29 08:58 185 0 gusting 3 23.9
2016-May-29 08:46 196 2 gusting 4 23.9
2016-May-29 08:28 183 23.9
2016-May-29 08:16 190 2 gusting 4 24.4
2016-May-29 07:58 153 1 gusting 6 24.4
2016-May-29 07:46 203 2 gusting 5 25.0
2016-May-29 07:28 182 0 gusting 6 25.6
2016-May-29 07:16 198 2 gusting 6 25.6
2016-May-29 06:58 212 0 gusting 4 25.6
2016-May-29 06:46 213 6 gusting 12 26.1
2016-May-29 06:28 245 2 gusting 6 25.6
2016-May-29 06:16 205 1 gusting 6 26.1
2016-May-29 05:58 194 2 gusting 6 26.1
2016-May-29 05:46 180 3 gusting 5 26.1
2016-May-29 05:28 200 1 gusting 3 26.7
2016-May-29 05:16 175 4 gusting 6 26.7
2016-May-29 04:58 186 1 gusting 6 27.2
2016-May-29 04:46 229 1 gusting 7 27.2
2016-May-29 04:28 194 0 gusting 0 26.7
2016-May-29 04:16 208 26.7
2016-May-29 03:58 191 0 gusting 4 27.8
2016-May-29 03:46 211 0 28.3
2016-May-29 03:28 178 27.8
2016-May-29 03:16 172 27.2
2016-May-29 02:58 201 26.7
2016-May-29 02:46 171 0 gusting 6 26.7
2016-May-29 02:28 115 0 gusting 5 27.2
2016-May-29 02:16 342 26.7
2016-May-29 01:58 175 1 gusting 6 26.7
2016-May-29 01:46 214 26.1
2016-May-29 01:28 028 1 gusting 5 26.1
2016-May-29 01:16 024 1 gusting 0 26.7
2016-May-29 00:58 025 26.1
2016-May-29 00:46 035 1 26.1
2016-May-29 00:28 327 24.4
2016-May-29 00:16 327 25.6
2016-May-28 23:58 234 25.0
2016-May-28 23:46 355 24.4
2016-May-28 23:28 355 23.3
2016-May-28 23:16 355 22.8
2016-May-28 22:58 355 22.2
2016-May-28 22:46 021 0 gusting 0 21.7
2016-May-28 22:28 355 20.6
2016-May-28 22:16 005 4 gusting 5 20.0
2016-May-28 21:58 020 2 gusting 4 18.3
2016-May-28 21:46 182 17.8
2016-May-28 21:28 182 17.2
2016-May-28 21:16 181 17.2
2016-May-28 20:58 181 16.7
2016-May-28 20:46 180 16.7
2016-May-28 20:28 182 16.7
2016-May-28 20:16 181 16.7
2016-May-28 19:58 180 16.7
2016-May-28 19:46 180 16.7
2016-May-28 19:28 182 16.7
2016-May-28 19:16 181 16.7
2016-May-28 18:58 182 17.2
2016-May-28 18:46 182 17.2
2016-May-28 18:28 182 17.2
2016-May-28 18:16 182 17.2
2016-May-28 17:58 182 17.2
2016-May-28 17:46 181 17.2
2016-May-28 17:28 180 17.8
2016-May-28 17:16 181 17.8
2016-May-28 16:58 180 17.8
2016-May-28 16:46 181 17.8
2016-May-28 16:28 181 17.8
2016-May-28 16:16 180 18.3
2016-May-28 15:58 180 18.3
2016-May-28 15:46 182 18.3
2016-May-28 15:28 181 18.3
2016-May-28 15:16 181 18.3
2016-May-28 14:58 180 18.3
2016-May-28 14:46 182 18.3
2016-May-28 14:28 181 18.3
2016-May-28 14:16 181 18.9
2016-May-28 13:58 182 18.9
2016-May-28 13:46 182 18.9
2016-May-28 13:28 182 18.9
2016-May-28 13:16 182 18.9
2016-May-28 12:58 181 19.4
2016-May-28 12:46 182 19.4
2016-May-28 12:28 180 19.4
2016-May-28 12:16 181 20.0
2016-May-28 11:58 182 20.0
2016-May-28 11:46 182 20.0
2016-May-28 11:28 182 20.0
2016-May-28 11:16 181 20.0
2016-May-28 10:58 178 2 gusting 6 20.0
2016-May-28 10:46 183 0 gusting 3 20.6
2016-May-28 10:28 165 20.6
2016-May-28 10:16 187 1 gusting 4 20.6
2016-May-28 09:58 213 0 gusting 0 21.1
2016-May-28 09:46 185 0 gusting 4 21.1
2016-May-28 09:28 184 21.1
2016-May-28 09:16 226 1 gusting 4 21.7
2016-May-28 08:58 219 2 gusting 5 21.7
2016-May-28 08:46 180 0 gusting 3 21.7
2016-May-28 08:28 190 21.7
2016-May-28 08:16 189 0 gusting 0 22.2
2016-May-28 07:58 170 2 gusting 4 22.2
2016-May-28 07:46 169 22.2
2016-May-28 07:28 200 0 gusting 4 22.8
2016-May-28 07:16 200 3 gusting 4 22.8
2016-May-28 06:58 223 2 gusting 5 22.8
2016-May-28 06:46 219 3 gusting 5 22.8
2016-May-28 06:28 188 1 gusting 4 22.8
2016-May-28 06:16 181 2 gusting 1 22.8
2016-May-28 05:58 167 0 gusting 3 22.8
2016-May-28 05:46 163 2 gusting 4 23.3
2016-May-28 05:28 209 2 gusting 4 23.3
2016-May-28 05:16 165 23.3
2016-May-28 04:58 153 23.9
2016-May-28 04:46 199 0 23.9
2016-May-28 04:28 178 23.3
2016-May-28 04:16 195 23.3
2016-May-28 03:58 186 23.9
2016-May-28 03:46 198 1 gusting 1 23.9
2016-May-28 03:28 176 23.3
2016-May-28 03:16 198 23.3
2016-May-28 02:58 180 1 gusting 3 23.3
2016-May-28 02:46 191 0 22.8
2016-May-28 02:28 218 22.8
2016-May-28 02:16 219 0 gusting 2 22.2
2016-May-28 01:58 226 0 gusting 3 21.7
2016-May-28 01:46 355 21.7
2016-May-28 01:28 355 21.7
2016-May-28 01:16 355 21.7
2016-May-28 00:58 355 21.1
2016-May-28 00:46 355 20.6
2016-May-28 00:28 355 20.6
2016-May-28 00:16 355 20.6
2016-May-27 23:58 355 20.0
2016-May-27 23:46 355 20.0
2016-May-27 23:28 355 19.4
2016-May-27 23:16 355 18.9
2016-May-27 22:58 355 18.9
2016-May-27 22:46 355 18.3
2016-May-27 22:28 355 18.3
2016-May-27 22:16 355 17.8
2016-May-27 21:58 355 17.8
2016-May-27 21:46 355 17.8
2016-May-27 21:28 355 17.2
2016-May-27 21:16 355 17.2
2016-May-27 20:58 355 17.2
2016-May-27 20:46 355 17.2
2016-May-27 20:28 355 16.7
2016-May-27 20:16 355 16.7
2016-May-27 19:58 355 16.7
2016-May-27 19:46 355 16.7
2016-May-27 19:28 355 16.7
2016-May-27 19:16 355 16.1
2016-May-27 18:58 355 16.1
2016-May-27 18:46 355 16.1
2016-May-27 18:28 355 16.1
2016-May-27 18:16 355 16.1
2016-May-27 17:58 355 16.1
2016-May-27 17:46 355 16.1
2016-May-27 17:28 355 16.1
2016-May-27 17:16 355 16.1
2016-May-27 16:58 355 16.1
2016-May-27 16:46 355 16.1
2016-May-27 16:28 355 16.1
2016-May-27 16:16 355 16.1
2016-May-27 15:58 355 16.7
2016-May-27 15:46 355 16.7
2016-May-27 15:28 355 16.7
2016-May-27 15:16 355 16.7
2016-May-27 14:58 355 17.2
2016-May-27 14:46 355 17.2
2016-May-27 14:28 355 17.2
2016-May-27 14:16 355 17.2
2016-May-27 13:58 355 17.2
2016-May-27 13:46 355 17.2
2016-May-27 13:28 355 17.2
2016-May-27 13:16 355 17.8
2016-May-27 12:58 355 17.8
2016-May-27 12:46 355 17.8
2016-May-27 12:28 355 17.8
2016-May-27 12:16 355 17.8
2016-May-27 11:58 355 18.3
2016-May-27 11:46 355 18.3
2016-May-27 11:28 355 18.3
2016-May-27 11:16 355 18.3